User: anonymous   Login
Location: Proctor
(47.8934°N, 114.3048°W)
Time: 10:46:58
(UTC+00:00)
Language:

A-11 Canister half - Orbit

View from above orbital plane
View from above orbital plane
View from above satellite
View from above satellite

Ground track
Ground track

The orbit data is extracted from the following two-line orbital elements,

1 00053U 60009E   24172.42512021  .00000063  00000-0  14594-2 0  9990
2 00053  47.2781  64.0757 0099579  86.7041 274.5134 12.17338059846893
Epoch (UTC): 20 June 2024 10:12:10
Eccentricity: 0.0099579
inclination: 47.2781°
perigee height: 1524 km
apogee height: 1683 km
right ascension of ascending node: 64.0757°
argument of perigee: 86.7041°
revolutions per day: 12.17338059
mean anomaly at epoch: 274.5134°
orbit number at epoch: 84689

The dashed part of the orbit path shows where the satellite is in the earth's shadow,  

DLR